Location: Nians�bougou
(13.2321°N, 4.9818°W)
Time: 09:06:26
(UTC+00:00)

Cosmos 1802 Rocket - Pass Details

Date: 18 February 2020
Orbit: 955 x 1011 km, 82.9° (Epoch: 28 March)

Event Time Altitude Azimuth Distance (km) Brightness Sun altitude
Rises 06:02:30 0° 0° (N) 3,735 7.0 -10.2°
Reaches altitude 10° 06:05:03 10° 3° (N) 2,782 6.3 -9.6°
Maximum altitude 06:11:25 70° 86° (E) 1,063 4.5 -8.1°
Drops below altitude 10° 06:17:44 10° 169° (S) 2,755 6.7 -6.5°
Sets 06:20:15 0° 171° (S) 3,696 7.3 -5.9°
